Back to catalog

SL-14 R/B

AlivePO
NORAD 15172·ROCKET BODY·🇷🇺 Russia

Launched Aug 8, 1984 from Plesetsk Cosmodrome

Loading…

Next Passes (next 24 hours)

TLE

FreshSource: Space-Track

Epoch: Sep 14, 2026, 06:38 UTC

1 15172U 84084B   26257.27641828  .00000003  00000-0 -53715-4 0  9999
2 15172  82.5932  94.3321 0006398 183.0075 351.3146 12.42605845909467

Track SL-14 R/B in real time with AllMySat

Download on the App Store